This is the latest recevied weather packets stored in our database for station/object WB6ANP. If no packets are shown the sender has not sent any weather packets the latest 10 day(s).
| Time | Temp. | Humidity | Pressure | Rain* | Wind** | Luminosity | Snow |
|---|---|---|---|---|---|---|---|
| 1777862346 | 19.44° C | 49% | 1015.6 hPa | 0 mm | - | 0 W/m² | - |
| 1777862042 | 20° C | 48% | 1015.5 hPa | 0 mm | - | 0 W/m² | - |
| 1777861737 | 20° C | 47% | 1015.4 hPa | 0 mm | - | 0 W/m² | - |
| 1777861434 | 20° C | 46% | 1015.2 hPa | 0 mm | - | 0 W/m² | - |
| 1777861131 | 20° C | 46% | 1015.1 hPa | 0 mm | - | 0 W/m² | - |
| 1777860828 | 20° C | 46% | 1015.2 hPa | 0 mm | - | 0 W/m² | - |
| 1777860525 | 20° C | 46% | 1015.4 hPa | 0 mm | - | 0 W/m² | - |
| 1777860222 | 19.44° C | 46% | 1015.2 hPa | 0 mm | - | 0 W/m² | - |
| 1777859918 | 19.44° C | 45% | 1015.2 hPa | 0 mm | - | 0 W/m² | - |
| 1777859614 | 19.44° C | 47% | 1015.1 hPa | 0 mm | - | 0 W/m² | - |
| 1777859311 | 20° C | 46% | 1015.3 hPa | 0 mm | - | 0 W/m² | - |
| 1777859006 | 20° C | 45% | 1015.2 hPa | 0 mm | - | 0 W/m² | - |
| 1777858705 | 20° C | 44% | 1015.3 hPa | 0 mm | - | 0 W/m² | - |
| 1777858402 | 20.56° C | 43% | 1015.3 hPa | 0 mm | - | 0 W/m² | - |
| 1777858099 | 20.56° C | 42% | 1015.1 hPa | 0 mm | - | 0 W/m² | - |
| 1777857796 | 21.11° C | 41% | 1015.3 hPa | 0 mm | - | 1 W/m² | - |
| 1777857494 | 21.11° C | 42% | 1015 hPa | 0 mm | - | 2 W/m² | - |
| 1777857190 | 21.67° C | 40% | 1015 hPa | 0 mm | - | 4 W/m² | - |
| 1777856886 | 22.22° C | 39% | 1014.9 hPa | 0 mm | - | 8 W/m² | - |
| 1777856581 | 22.78° C | 38% | 1015 hPa | 0 mm | - | 15 W/m² | - |
| 1777856279 | 22.78° C | 37% | 1015.2 hPa | 0 mm | - | 21 W/m² | - |
| 1777855975 | 23.33° C | 36% | 1015 hPa | 0 mm | - | 28 W/m² | - |
| 1777855673 | 23.33° C | 35% | 1015.1 hPa | 0 mm | - | 34 W/m² | - |
| 1777855370 | 23.33° C | 36% | 1015 hPa | 0 mm | - | 38 W/m² | - |
| 1777855067 | 23.33° C | 36% | 1015.1 hPa | 0 mm | - | 42 W/m² | - |
* Rain latest hour (hover to see other rain measurements)
** Current wind speed in m/s (hover to see current wind gust speed)